WZZ946 LHBP-LRBV

Flight info

Callsign WZZ946
Flight time 1h 6m
Altitude 37000
Route VETIK DCT UVERA DCT BUDOP DCT NERDI DCT ZULOC DCT LEBAT
Aircraft A320/M-SDE1E2E3FGIJ1J4RWXY/LB1

Departure

Time 2026-05-04 15:30
Airport Budapest Liszt Ferenc International Airport (LHBP)

Arrival

Time 2026-05-04 16:37
Airport Brașov-Ghimbav International Airport (LRBV)
Time Latitude Longitude Altitude Speed Heading
2026-05-04 15:10 47.43535 19.26431 458 ft 0 kts 222°
2026-05-04 15:20 47.43539 19.26438 457 ft 4 kts 222°
2026-05-04 15:21 47.43556 19.26461 458 ft 4 kts 233°
2026-05-04 15:21 47.43565 19.26494 456 ft 4 kts 279°
2026-05-04 15:21 47.43537 19.26558 458 ft 3 kts 313°
2026-05-04 15:22 47.43535 19.26561 458 ft 0 kts 312°
2026-05-04 15:24 47.43539 19.26555 458 ft 5 kts 312°
2026-05-04 15:25 47.43577 19.26493 458 ft 11 kts 312°
2026-05-04 15:25 47.43626 19.26413 458 ft 10 kts 312°
2026-05-04 15:25 47.43685 19.26351 458 ft 12 kts 356°
2026-05-04 15:26 47.43834 19.26344 458 ft 15 kts 311°
2026-05-04 15:26 47.43909 19.26221 458 ft 17 kts 313°
2026-05-04 15:26 47.44096 19.25920 458 ft 22 kts 312°
2026-05-04 15:27 47.44201 19.25751 458 ft 23 kts 312°
2026-05-04 15:27 47.44319 19.25576 458 ft 8 kts 324°
2026-05-04 15:28 47.44447 19.25583 461 ft 10 kts 29°
2026-05-04 15:28 47.44468 19.25607 464 ft 0 kts 42°
2026-05-04 15:28 47.44496 19.25664 470 ft 5 kts 63°
2026-05-04 15:29 47.44506 19.25766 477 ft 13 kts 95°
2026-05-04 15:30 47.44330 19.26099 474 ft 63 kts 133°
2026-05-04 15:30 47.42499 19.29075 1363 ft 148 kts 134°
2026-05-04 15:31 47.41290 19.31863 2233 ft 183 kts 122°
2026-05-04 15:31 47.40630 19.33600 2563 ft 205 kts 123°
2026-05-04 15:32 47.38354 19.39920 4488 ft 258 kts 107°
2026-05-04 15:32 47.39558 19.45018 6176 ft 286 kts 46°
2026-05-04 15:33 47.42664 19.48814 8034 ft 294 kts 38°
2026-05-04 15:34 47.47428 19.54835 10447 ft 318 kts 45°
2026-05-04 15:34 47.49062 19.57179 10904 ft 333 kts 46°
2026-05-04 15:34 47.52377 19.62140 12445 ft 343 kts 46°
2026-05-04 15:35 47.55111 19.66420 13781 ft 347 kts 54°
2026-05-04 15:35 47.56456 19.70733 14706 ft 349 kts 78°
2026-05-04 15:35 47.56638 19.73103 15150 ft 351 kts 90°
2026-05-04 15:36 47.55158 19.79926 16449 ft 356 kts 124°
2026-05-04 15:36 47.53766 19.82979 17112 ft 360 kts 124°
2026-05-04 15:36 47.52354 19.86063 17774 ft 364 kts 124°
2026-05-04 15:37 47.50930 19.89176 18419 ft 368 kts 124°
2026-05-04 15:37 47.49488 19.92331 18975 ft 372 kts 123°
2026-05-04 15:37 47.48029 19.95523 19565 ft 376 kts 123°
2026-05-04 15:37 47.46559 19.98737 20157 ft 379 kts 123°
2026-05-04 15:38 47.45069 20.01984 20734 ft 383 kts 123°
2026-05-04 15:38 47.43565 20.05255 21270 ft 387 kts 123°
2026-05-04 15:38 47.42047 20.08555 21771 ft 391 kts 122°
2026-05-04 15:38 47.40509 20.11898 22297 ft 394 kts 123°
2026-05-04 15:39 47.38959 20.15257 22831 ft 398 kts 123°
2026-05-04 15:39 47.37397 20.18639 23420 ft 400 kts 123°
2026-05-04 15:39 47.33870 20.25078 24309 ft 410 kts 137°
2026-05-04 15:40 47.31721 20.27856 24785 ft 412 kts 137°
2026-05-04 15:40 47.29551 20.30653 25217 ft 415 kts 137°
2026-05-04 15:40 47.27373 20.33458 25664 ft 417 kts 137°
2026-05-04 15:40 47.25182 20.36277 26109 ft 420 kts 137°
2026-05-04 15:41 47.22975 20.39119 26539 ft 423 kts 137°
2026-05-04 15:41 47.20809 20.41995 26956 ft 425 kts 133°
2026-05-04 15:41 47.18895 20.45311 27365 ft 427 kts 123°
2026-05-04 15:41 47.17207 20.48908 27780 ft 429 kts 123°
2026-05-04 15:42 47.15505 20.52531 28187 ft 432 kts 123°
2026-05-04 15:42 47.13787 20.56166 28597 ft 435 kts 123°
2026-05-04 15:42 47.12025 20.59880 29021 ft 438 kts 123°
2026-05-04 15:42 47.10300 20.63511 29435 ft 441 kts 123°
2026-05-04 15:43 47.08539 20.67208 29847 ft 444 kts 123°
2026-05-04 15:43 47.06763 20.70932 30240 ft 447 kts 123°
2026-05-04 15:43 47.04975 20.74678 30592 ft 450 kts 123°
2026-05-04 15:43 47.03176 20.78443 30943 ft 452 kts 123°
2026-05-04 15:44 47.01364 20.82231 31292 ft 455 kts 123°
2026-05-04 15:44 46.99543 20.86037 31635 ft 457 kts 123°
2026-05-04 15:44 46.97716 20.89857 32038 ft 458 kts 123°
2026-05-04 15:44 46.95890 20.93671 32554 ft 457 kts 122°
2026-05-04 15:45 46.94063 20.97482 33035 ft 457 kts 122°
2026-05-04 15:45 46.92236 21.01283 33516 ft 456 kts 122°
2026-05-04 15:45 46.90409 21.05075 33991 ft 456 kts 122°
2026-05-04 15:45 46.88580 21.08863 34406 ft 456 kts 122°
2026-05-04 15:46 46.86752 21.12645 34823 ft 455 kts 122°
2026-05-04 15:46 46.84929 21.16411 35252 ft 454 kts 123°
2026-05-04 15:46 46.83108 21.20173 35669 ft 452 kts 123°
2026-05-04 15:46 46.81297 21.23917 36087 ft 451 kts 123°
2026-05-04 15:47 46.79488 21.27652 36522 ft 449 kts 123°
2026-05-04 15:47 46.77689 21.31361 36933 ft 448 kts 123°
2026-05-04 15:47 46.75884 21.35073 37069 ft 447 kts 123°
2026-05-04 15:48 46.72292 21.42426 37084 ft 444 kts 123°
2026-05-04 15:48 46.66665 21.53139 37082 ft 445 kts 129°
2026-05-04 15:49 46.62597 21.59925 37083 ft 444 kts 129°
2026-05-04 15:49 46.58530 21.66699 37085 ft 444 kts 129°
2026-05-04 15:50 46.54458 21.73449 37078 ft 444 kts 129°
2026-05-04 15:50 46.50384 21.80194 37076 ft 445 kts 129°
2026-05-04 15:51 46.46299 21.86943 37095 ft 445 kts 129°
2026-05-04 15:51 46.42212 21.93676 37093 ft 445 kts 129°
2026-05-04 15:52 46.38114 22.00398 37091 ft 445 kts 130°
2026-05-04 15:52 46.34019 22.07108 37090 ft 445 kts 129°
2026-05-04 15:53 46.29927 22.13811 37102 ft 445 kts 130°
2026-05-04 15:53 46.25849 22.20461 37098 ft 444 kts 130°
2026-05-04 15:54 46.21745 22.27135 37085 ft 444 kts 130°
2026-05-04 15:54 46.17633 22.33795 37085 ft 444 kts 130°
2026-05-04 15:55 46.13522 22.40447 37079 ft 444 kts 130°
2026-05-04 15:55 46.09409 22.47099 37089 ft 444 kts 130°
2026-05-04 15:56 46.05294 22.53727 37087 ft 444 kts 130°
2026-05-04 15:56 46.01175 22.60348 37085 ft 444 kts 130°
2026-05-04 15:57 45.97050 22.66953 37080 ft 444 kts 130°
2026-05-04 15:57 45.92921 22.73544 37092 ft 443 kts 130°
2026-05-04 15:58 45.88799 22.80122 37083 ft 443 kts 130°
2026-05-04 15:58 45.84671 22.86697 37077 ft 443 kts 130°
2026-05-04 15:59 45.80542 22.93262 37079 ft 443 kts 130°
2026-05-04 15:59 45.76403 22.99814 37081 ft 444 kts 130°
2026-05-04 16:00 45.72256 23.06369 37074 ft 444 kts 130°
2026-05-04 16:00 45.68099 23.12918 37074 ft 445 kts 130°
2026-05-04 16:01 45.63937 23.19468 37081 ft 445 kts 130°
2026-05-04 16:01 45.59775 23.26016 37097 ft 445 kts 130°
2026-05-04 16:02 45.55600 23.32549 37086 ft 446 kts 130°
2026-05-04 16:03 45.49341 23.42294 37090 ft 446 kts 131°
2026-05-04 16:03 45.45124 23.48847 37092 ft 446 kts 130°
2026-05-04 16:04 45.40942 23.55344 37084 ft 446 kts 130°
2026-05-04 16:04 45.34680 23.65064 37082 ft 446 kts 129°
2026-05-04 16:05 45.32897 23.68631 37083 ft 442 kts 116°
2026-05-04 16:05 45.31768 23.72650 37080 ft 437 kts 101°
2026-05-04 16:05 45.31389 23.81165 37070 ft 432 kts 87°
2026-05-04 16:06 45.31436 23.85425 37085 ft 433 kts 88°
2026-05-04 16:07 45.31583 24.02549 37065 ft 434 kts 87°
2026-05-04 16:08 45.31705 24.19740 37071 ft 435 kts 87°
2026-05-04 16:09 45.31825 24.41260 37060 ft 437 kts 88°
2026-05-04 16:10 45.31895 24.58633 35318 ft 449 kts 88°
2026-05-04 16:11 45.31933 24.71993 33407 ft 449 kts 89°
2026-05-04 16:11 45.31941 24.76416 32800 ft 447 kts 90°
2026-05-04 16:12 45.31945 24.89537 31147 ft 439 kts 90°
2026-05-04 16:12 45.32145 25.02378 29457 ft 432 kts 84°
2026-05-04 16:13 45.32897 25.10779 28390 ft 424 kts 82°
2026-05-04 16:13 45.33672 25.19017 27358 ft 418 kts 82°
2026-05-04 16:14 45.34417 25.27144 26392 ft 411 kts 82°
2026-05-04 16:14 45.35133 25.35159 25448 ft 407 kts 81°
2026-05-04 16:15 45.36165 25.46987 24293 ft 394 kts 81°
2026-05-04 16:16 45.36824 25.54560 23040 ft 378 kts 79°
2026-05-04 16:16 45.35205 25.64987 20701 ft 369 kts 127°
2026-05-04 16:17 45.30953 25.68855 19217 ft 368 kts 162°
2026-05-04 16:18 45.23714 25.66590 16910 ft 367 kts 220°
2026-05-04 16:18 45.22038 25.63912 16139 ft 362 kts 239°
2026-05-04 16:19 45.20168 25.53905 13924 ft 346 kts 266°
2026-05-04 16:19 45.19648 25.47409 13347 ft 312 kts 267°
2026-05-04 16:20 45.19868 25.38978 12412 ft 275 kts 296°
2026-05-04 16:20 45.21813 25.34649 12261 ft 258 kts 321°
2026-05-04 16:21 45.26419 25.31382 12258 ft 244 kts 357°
2026-05-04 16:22 45.29186 25.31503 12264 ft 238 kts 15°
2026-05-04 16:22 45.33428 25.34828 12265 ft 234 kts 46°
2026-05-04 16:23 45.35603 25.41011 12262 ft 239 kts 75°
2026-05-04 16:24 45.36479 25.50454 12263 ft 241 kts 79°
2026-05-04 16:25 45.37587 25.55125 11912 ft 267 kts 45°
2026-05-04 16:26 45.44627 25.57570 10810 ft 263 kts 11°
2026-05-04 16:26 45.49942 25.58974 9796 ft 257 kts 10°
2026-05-04 16:27 45.53475 25.59809 9103 ft 257 kts
2026-05-04 16:28 45.58728 25.60979 8115 ft 252 kts
2026-05-04 16:28 45.64103 25.62172 6699 ft 270 kts
2026-05-04 16:29 45.71498 25.63813 5553 ft 258 kts
2026-05-04 16:30 45.76576 25.64939 5177 ft 235 kts 10°
2026-05-04 16:31 45.79690 25.65626 4926 ft 218 kts 10°
2026-05-04 16:31 45.83941 25.66577 4545 ft 198 kts
2026-05-04 16:32 45.87116 25.63702 4370 ft 213 kts 281°
2026-05-04 16:33 45.85958 25.60102 4264 ft 195 kts 210°
2026-05-04 16:33 45.83492 25.59583 4034 ft 172 kts 183°
2026-05-04 16:34 45.81144 25.59212 3670 ft 168 kts 183°
2026-05-04 16:34 45.80012 25.59032 3520 ft 158 kts 184°
2026-05-04 16:35 45.76851 25.58236 2957 ft 153 kts 196°
2026-05-04 16:35 45.74176 25.56026 2376 ft 142 kts 213°
2026-05-04 16:36 45.73373 25.55211 2195 ft 141 kts 213°
2026-05-04 16:36 45.71786 25.53565 1815 ft 142 kts 214°
2026-05-04 16:37 45.70524 25.52253 1767 ft 66 kts 216°
2026-05-04 16:37 45.70249 25.51965 1785 ft 42 kts 216°
2026-05-04 16:37 45.69871 25.51568 1788 ft 26 kts 216°
2026-05-04 16:38 45.69638 25.51325 1795 ft 13 kts 214°
2026-05-04 16:39 45.69548 25.51411 1794 ft 6 kts 126°
2026-05-04 16:39 45.69531 25.51542 1793 ft 5 kts 38°
2026-05-04 16:40 45.69502 25.51632 1792 ft 4 kts 125°
2026-05-04 16:40 45.69494 25.51649 1794 ft 0 kts 124°